Lexington Weather

Lexington, Massachusetts, USA

24°F
1/21/2021 9:41am 
  • Lexington Conditions: Clear
  • Temperature: 24.3°F / -4.3°CWarmer 2.4°F than last hour.
  • Dew Point: 13.1°FIncreased 1.4°Fsince last hour.
  • Relative Humidity: 62%Decreased 2.0% since last hour.
  • Wind: Calm, 10-min avg: Calm, gust: 6 mph
  • Barometer: 29.77 inFalling 0.02  inHg/hr Falling Slowly
  • Visibility: 10 miles
  • Snow Today: Trace
  •   

Regional Weather Roundup
for Boston / Norton, MA

        
000
ASUS41 KBOX 161304
RWRBOX

REGIONAL WEATHER ROUNDUP
NATIONAL WEATHER SERVICE BOSTON/NORTON MA
800 AM EST SAT JAN 16 2021

NOTE:  "FAIR" INDICATES FEW OR NO CLOUDS BELOW 12,000 FEET WITH NO 
SIGNIFICANT WEATHER AND/OR OBSTRUCTIONS TO VISIBILITY.

MAZALL-161400-
EASTERN MASSACHUSETTS
  
CITY           SKY/WX    TMP DP  RH WIND       PRES   REMARKS
BOSTON         HVY RAIN  43  42  97 E32G40    29.57F FOG              
BEVERLY        RAIN      45  42  89 E25G35    29.60F FOG              
LAWRENCE       HVY RAIN  43  41  93 E16G25    29.61F FOG              
BEDFORD        RAIN      44  43  96 E26G37    29.55F FOG              
BLUE HILL        N/A     43  42  97 E26G43    29.50F                  
NORWOOD        RAIN      47  43  86 E15       29.53F FOG              
MARSHFIELD     LGT RAIN  46  46 100 E21G35    29.56F                  
PLYMOUTH       RAIN      47  44  90 E23G36    29.54F FOG              
TAUNTON        RAIN      51  47  86 E22G30    29.50F FOG              
NEW BEDFORD    HVY RAIN  49  48  97 E23G32    29.49F FOG              
$$

MAZALL-161400-
CAPE COD AND THE ISLANDS
  
CITY           SKY/WX    TMP DP  RH WIND       PRES   REMARKS
FALMOUTH       LGT RAIN  46  46 100 SE30G37   29.55F                  
HYANNIS        RAIN      48  46  93 E18G30    29.53F FOG              
CHATHAM        RAIN      48  45  89 E17G30    29.61F FOG              
PROVINCETOWN   LGT RAIN  46  45  96 E18G36    29.61F FOG              
NANTUCKET      RAIN      49  48  97 E23G31    29.55F FOG              
MARTHAS VNYRD  LGT RAIN  50  48  93 E28G41    29.50F FOG              
$$
 
MAZALL-161400-
CENTRAL AND WESTERN MASSACHUSETTS
  
CITY           SKY/WX    TMP DP  RH WIND       PRES   REMARKS
WORCESTER      RAIN      40  39  97 NE10      29.49F FOG              
FITCHBURG      RAIN      41  41 100 VRB5      29.56F FOG              
ORANGE         RAIN      37  35  92 NW8       29.54F FOG     WCI  31  
SPRINGFIELD    RAIN      37  37  99 N10       29.52F FOG     WCI  30  
WESTFIELD      RAIN      34  34 100 N8        29.53F FOG     WCI  27  
NORTH ADAMS    RAIN      36  32  85 E15G22    29.54F WCI  27          
PITTSFIELD     LGT SNOW  33  32  96 NE8       29.48F FOG     WCI  26  
$$
 
RIZALL-161400-
RHODE ISLAND
  
CITY           SKY/WX    TMP DP  RH WIND       PRES   REMARKS
PROVIDENCE     RAIN      49  48  97 E30G40    29.47F                  
NEWPORT        RAIN      49  47  93 E23G33    29.44F FOG              
BLOCK ISLAND   RAIN      49  48  97 SE28G39   29.42F FOG              
SMITHFIELD     RAIN      46  46 100 SE14      29.49F FOG              
WESTERLY       RAIN      47  46  97 E25G35    29.39F FOG              
$$
 
CTZALL-161400-
CONNECTICUT
  
CITY           SKY/WX    TMP DP  RH WIND       PRES   REMARKS
BRADLEY INTL   RAIN      37  35  92 N13       29.51F FOG     WCI  29  
HARTFORD       RAIN      38  36  92 N13       29.48F FOG     WCI  30  
BRIDGEPORT     CLOUDY    43  40  89 NE10      29.38F                  
DANBURY        CLOUDY    38  36  92 NE8       29.40F                  
GROTON         NOT AVBL                                               
NEW HAVEN      LGT RAIN  42  40  92 NE17G26   29.35F                  
CHESTER        LGT RAIN  41  41 100 N8        29.45F                  
MERIDEN        LGT RAIN  38  36  92 NE14G20   29.40F WCI  30          
WILLIMANTIC    HVY RAIN  42  41  96 N9        29.50S FOG              
OXFORD         LGT RAIN  37  37 100 NE20G28   29.38F WCI  27          
$$

MEZ002-015-021-024-NHZ003-005-008-011-012-014-VTZ005-008-161400-
NORTHERN NEW ENGLAND
  
CITY           SKY/WX    TMP DP  RH WIND       PRES   REMARKS
PORTLAND ME    LGT RAIN  41  37  86 E21       29.79F WCI  32          
BANGOR ME      CLOUDY    34  26  72 E13       29.93F WCI  25          
CONCORD NH     LGT RAIN  39  35  86 E21G33    29.63F WCI  29          
MANCHESTER NH  RAIN      42  38  85 E15G31    29.60F FOG              
NASHUA NH      RAIN      42  42 100 E16G23    29.59F FOG              
PORTSMOUTH NH  LGT RAIN  42  40  94 E17G33    29.64F FOG              
JAFFREY NH     RAIN      36  33  89 VRB6      29.55F FOG     WCI  31  
KEENE NH       MIX PCPN  37  34  89 VRB5      29.56F FOG              
BURLINGTON VT  LGT RAIN  34  32  92 CALM      29.62F                  
MT. WASHINGTON SNOW      18  18 100 SE69        N/A  VSB 1/16WCI  -9  
$$

NYZ052-076-161400-
EASTERN NEW YORK
  
CITY           SKY/WX    TMP DP  RH WIND       PRES   REMARKS
ALBANY         LGT RAIN  33  33 100 N8        29.47F FOG     WCI  26  
NEW YORK CITY  CLOUDY    44  40  85 N6        29.44F                  
$$
 
ANZALL-161400-
MARINE OBSERVATIONS
  
STATION/POSITION TIME  TEMP    WIND        PRES    VSBY  WAVE
                       AIR SEA DIR/SP/G                  HT/PER
                 (UTC) (F)     (DEG/KT/KT) (MB)    (MI)  (FT/S)
BOSTON BUOY      1240   45 43   90/ 27/ 37 1002.6F
BUZZARDS BAY     1200          110/ 38/ 42  998.9F
NANTUCKET SOUND  1240      41  100/ 23/ 29   N/A
MASS BAY-STELLWA 1204   44     100/ 23/ 31 1004.4F  1 1/2  8/ 6
ISLE OF SHOALS   1200   42      80/ 33/ 36 1004.9F
S OF BLOCK IS    1226      46                N/A          11/ 7
$$

......................KEY.........................
  SKY/WX - SKY CONDITION/PRESENT WEATHER
  TMP    - TEMPERATURE IN FAHRENHEIT
  DWPT   - DEWPOINT IN FAHRENHEIT
  RH     - RELATIVE HUMIDITY IN PERCENT
  WIND   - DIRECTION AND SPEED IN MPH
  PRES   - MEAN SEA LEVEL PRESSURE IN INCHES OF HG
  WCI    - WIND CHILL INDEX
  VSB    - VISIBILITY IN MILES
  HX     - HEAT INDEX
  TC     - TEMPERATURE IN CELSIUS
  VRB    - VARIABLE WIND DIRECTION
  N/A    - NOT AVAILABLE
  
      

Other recent Regional Weather Roundups

Thu Jan 21, 9:04am

Thu Jan 21, 7:04am

Thu Jan 21, 6:04am

Thu Jan 21, 5:04am

Thu Jan 21, 4:04am

Thu Jan 21, 3:04am

Thu Jan 21, 2:04am

Thu Jan 21, 1:04am

Thu Jan 21, 12:04am

Wed Jan 20, 11:04pm

Wed Jan 20, 10:05pm

Wed Jan 20, 9:04pm

Wed Jan 20, 8:04pm

Wed Jan 20, 7:04pm

Wed Jan 20, 6:05pm

Wed Jan 20, 5:05pm

Wed Jan 20, 1:04pm

Wed Jan 20, 12:04pm

Wed Jan 20, 11:04am

Wed Jan 20, 10:04am

Wed Jan 20, 9:05am

Wed Jan 20, 8:04am

Wed Jan 20, 7:04am

Wed Jan 20, 6:04am

Wed Jan 20, 5:04am

Wed Jan 20, 4:04am

Wed Jan 20, 3:05am

Wed Jan 20, 2:04am

Wed Jan 20, 1:04am

Wed Jan 20, 12:04am

Tue Jan 19, 11:04pm

Tue Jan 19, 10:04pm

Tue Jan 19, 9:04pm

Tue Jan 19, 8:04pm

Tue Jan 19, 7:04pm

Tue Jan 19, 6:05pm

Tue Jan 19, 5:04pm

Tue Jan 19, 4:05pm

Tue Jan 19, 3:04pm

Tue Jan 19, 2:04pm

Tue Jan 19, 1:04pm

Tue Jan 19, 12:05pm

Tue Jan 19, 11:04am

Tue Jan 19, 10:05am

Tue Jan 19, 9:04am

Tue Jan 19, 8:04am

Tue Jan 19, 7:04am

Tue Jan 19, 6:04am

Tue Jan 19, 5:04am

Tue Jan 19, 4:04am

Tue Jan 19, 3:04am

Tue Jan 19, 2:04am

Tue Jan 19, 1:04am

Tue Jan 19, 12:04am

Mon Jan 18, 11:04pm

Mon Jan 18, 10:04pm

Mon Jan 18, 9:04pm

Mon Jan 18, 8:05pm

Mon Jan 18, 7:04pm

Mon Jan 18, 6:05pm

Mon Jan 18, 5:04pm

Mon Jan 18, 4:04pm

Mon Jan 18, 3:04pm

Mon Jan 18, 2:04pm

Mon Jan 18, 1:04pm

Mon Jan 18, 12:04pm

Mon Jan 18, 11:04am

Mon Jan 18, 10:04am

Mon Jan 18, 9:04am

Mon Jan 18, 8:04am

Mon Jan 18, 7:04am

Mon Jan 18, 6:04am

Mon Jan 18, 5:04am

Mon Jan 18, 4:04am

Mon Jan 18, 3:04am

Mon Jan 18, 2:04am

Mon Jan 18, 1:04am

Mon Jan 18, 12:04am

Sun Jan 17, 11:04pm

Sun Jan 17, 10:04pm

Sun Jan 17, 9:04pm

Sun Jan 17, 8:04pm

Sun Jan 17, 7:04pm

Sun Jan 17, 6:04pm

Sun Jan 17, 5:04pm

Sun Jan 17, 4:05pm

Sun Jan 17, 3:04pm

Sun Jan 17, 2:04pm

Sun Jan 17, 1:04pm

Sun Jan 17, 12:04pm

Sun Jan 17, 11:04am

Sun Jan 17, 10:04am

Sun Jan 17, 9:04am

Sun Jan 17, 8:04am

Sun Jan 17, 7:04am

Sun Jan 17, 6:04am

Sun Jan 17, 5:04am

Sun Jan 17, 4:04am

Sun Jan 17, 3:04am

Sun Jan 17, 2:04am

Sun Jan 17, 1:04am

Sun Jan 17, 12:04am

Sat Jan 16, 11:05pm

Sat Jan 16, 10:04pm

Sat Jan 16, 9:04pm

Sat Jan 16, 8:05pm

Sat Jan 16, 7:04pm

Sat Jan 16, 6:04pm

Sat Jan 16, 5:05pm

Sat Jan 16, 4:05pm

Sat Jan 16, 3:05pm

Sat Jan 16, 2:04pm

Sat Jan 16, 1:04pm

Sat Jan 16, 12:04pm

Sat Jan 16, 11:04am

Sat Jan 16, 10:05am

Sat Jan 16, 9:04am

Sat Jan 16, 7:04am

Sat Jan 16, 6:04am

Sat Jan 16, 5:04am

Sat Jan 16, 4:04am

Sat Jan 16, 3:05am

Sat Jan 16, 2:04am

Sat Jan 16, 1:04am

Sat Jan 16, 12:05am

Fri Jan 15, 11:05pm

Fri Jan 15, 10:04pm

Fri Jan 15, 9:04pm

Fri Jan 15, 8:04pm

Fri Jan 15, 7:05pm

Fri Jan 15, 6:05pm

Fri Jan 15, 5:05pm

Fri Jan 15, 4:05pm

Fri Jan 15, 3:04pm

Fri Jan 15, 2:05pm

Fri Jan 15, 1:04pm

Fri Jan 15, 12:05pm

Fri Jan 15, 11:04am

Fri Jan 15, 10:04am

Fri Jan 15, 9:05am

Fri Jan 15, 8:04am

Fri Jan 15, 7:04am

Fri Jan 15, 6:04am

Fri Jan 15, 5:05am

Fri Jan 15, 4:04am

Fri Jan 15, 3:04am

Fri Jan 15, 2:04am

Fri Jan 15, 1:04am

Fri Jan 15, 12:05am

Thu Jan 14, 11:04pm

Thu Jan 14, 10:04pm

Thu Jan 14, 9:04pm

Thu Jan 14, 8:05pm

Thu Jan 14, 7:04pm

Thu Jan 14, 6:04pm

Thu Jan 14, 5:04pm

Thu Jan 14, 4:05pm

Thu Jan 14, 3:04pm

Thu Jan 14, 2:04pm

Thu Jan 14, 1:04pm

Thu Jan 14, 12:05pm

Thu Jan 14, 11:05am

Thu Jan 14, 10:04am

Thu Jan 14, 9:04am

Thu Jan 14, 8:04am

Thu Jan 14, 7:04am

Thu Jan 14, 6:04am

Thu Jan 14, 5:04am

Thu Jan 14, 4:04am

Thu Jan 14, 3:04am

Thu Jan 14, 2:04am

Thu Jan 14, 1:04am

Thu Jan 14, 12:04am

Wed Jan 13, 11:04pm

Wed Jan 13, 10:04pm

Wed Jan 13, 9:04pm

Wed Jan 13, 8:05pm

Wed Jan 13, 7:04pm

Wed Jan 13, 6:04pm

Wed Jan 13, 5:04pm

Wed Jan 13, 4:04pm

Wed Jan 13, 3:05pm

Wed Jan 13, 2:04pm

Wed Jan 13, 1:04pm

Wed Jan 13, 12:04pm

Wed Jan 13, 11:04am

Wed Jan 13, 10:04am

Wed Jan 13, 9:05am

Wed Jan 13, 8:04am

Wed Jan 13, 7:04am

Wed Jan 13, 6:04am

Wed Jan 13, 5:04am

Wed Jan 13, 4:04am

Wed Jan 13, 3:04am

Wed Jan 13, 2:04am

Wed Jan 13, 1:04am

Wed Jan 13, 12:05am

Tue Jan 12, 11:04pm

Tue Jan 12, 10:04pm

Tue Jan 12, 9:04pm

Tue Jan 12, 8:05pm

Tue Jan 12, 7:04pm

Meta data:

ID: f7bb08dd-32ba-4ca9-9be9-2f0d7169a813
Link: https://api.weather.gov/products/f7bb08dd-32ba-4ca9-9be9-2f0d7169a813